Time,TemperatureF,DewpointF,PressureIn,WindDirection,WindDirectionDegrees,WindSpeedMPH,WindSpeedGustMPH,Humidity,HourlyPrecipIn,Conditions,Clouds,dailyrainin,SolarRadiationWatts/m^2,SoftwareType,DateUTC
2013-05-12 00:02:00,67.5,66.0,30.00,SW,221,0.0,3.0,96,0.00,,,0.00,0,weatherlink.com 1.10,2013-05-12 04:02:00,
2013-05-12 00:17:00,67.4,66.0,30.00,SW,221,0.0,1.0,96,0.00,,,0.00,0,weatherlink.com 1.10,2013-05-12 04:17:00,
2013-05-12 00:34:00,67.2,66.0,30.01,SW,222,0.0,0.0,96,0.00,,,0.00,0,weatherlink.com 1.10,2013-05-12 04:34:00,
2013-05-12 00:48:00,67.1,66.0,30.00,SSW,197,1.0,1.0,97,0.00,,,0.00,0,weatherlink.com 1.10,2013-05-12 04:48:00,
2013-05-12 01:04:00,67.0,66.0,30.00,South,173,0.0,1.0,96,0.00,,,0.00,0,weatherlink.com 1.10,2013-05-12 05:04:00,
2013-05-12 01:18:00,66.9,66.0,29.99,SSE,167,0.0,0.0,97,0.00,,,0.00,0,weatherlink.com 1.10,2013-05-12 05:18:00,
2013-05-12 01:34:00,66.8,66.0,29.99,SSE,167,0.0,0.0,97,0.00,,,0.00,0,weatherlink.com 1.10,2013-05-12 05:34:00,
2013-05-12 01:48:00,66.8,66.0,30.00,SSE,168,0.0,2.0,97,0.00,,,0.00,0,weatherlink.com 1.10,2013-05-12 05:48:00,
2013-05-12 02:04:00,66.9,66.0,29.99,SSE,168,0.0,1.0,97,0.00,,,0.00,0,weatherlink.com 1.10,2013-05-12 06:04:00,
2013-05-12 02:18:00,66.9,66.0,29.99,SW,217,0.0,1.0,97,0.00,,,0.00,0,weatherlink.com 1.10,2013-05-12 06:18:00,
2013-05-12 02:34:00,66.7,66.0,29.99,SW,229,0.0,3.0,97,0.00,,,0.00,0,weatherlink.com 1.10,2013-05-12 06:34:00,
2013-05-12 02:48:00,66.5,66.0,29.98,SSE,161,0.0,3.0,97,0.01,,,0.01,0,weatherlink.com 1.10,2013-05-12 06:48:00,
2013-05-12 03:04:00,66.5,66.0,29.99,SSW,205,1.0,4.0,97,0.01,,,0.01,0,weatherlink.com 1.10,2013-05-12 07:04:00,
2013-05-12 03:18:00,66.6,66.0,29.99,SSW,209,1.0,4.0,97,0.01,,,0.01,0,weatherlink.com 1.10,2013-05-12 07:18:00,
2013-05-12 03:34:00,66.6,66.0,29.98,WSW,247,0.0,3.0,97,0.01,,,0.01,0,weatherlink.com 1.10,2013-05-12 07:34:00,
2013-05-12 03:49:00,66.4,66.0,29.96,WSW,237,2.0,3.0,97,0.00,,,0.01,0,weatherlink.com 1.10,2013-05-12 07:49:00,
2013-05-12 04:04:00,66.4,66.0,29.94,South,189,1.0,3.0,97,0.00,,,0.01,0,weatherlink.com 1.10,2013-05-12 08:04:00,
2013-05-12 04:19:00,66.3,66.0,29.94,SW,227,0.0,3.0,97,0.00,,,0.01,0,weatherlink.com 1.10,2013-05-12 08:19:00,
2013-05-12 04:34:00,66.3,66.0,29.94,SW,227,0.0,1.0,97,0.00,,,0.01,0,weatherlink.com 1.10,2013-05-12 08:34:00,
2013-05-12 04:49:00,66.3,66.0,29.95,SW,227,0.0,1.0,97,0.00,,,0.01,0,weatherlink.com 1.10,2013-05-12 08:49:00,
2013-05-12 05:04:00,66.1,65.0,29.95,SW,227,0.0,1.0,97,0.00,,,0.01,0,weatherlink.com 1.10,2013-05-12 09:04:00,
2013-05-12 05:19:00,66.2,65.0,29.95,WNW,294,0.0,2.0,97,0.00,,,0.01,0,weatherlink.com 1.10,2013-05-12 09:19:00,
2013-05-12 05:34:00,66.3,66.0,29.95,WNW,290,0.0,1.0,97,0.00,,,0.01,0,weatherlink.com 1.10,2013-05-12 09:34:00,
2013-05-12 05:49:00,66.1,65.0,29.95,West,267,0.0,1.0,97,0.00,,,0.01,0,weatherlink.com 1.10,2013-05-12 09:49:00,
2013-05-12 06:04:00,65.9,65.0,29.96,WSW,240,1.0,2.0,97,0.00,,,0.01,0,weatherlink.com 1.10,2013-05-12 10:04:00,
2013-05-12 06:19:00,66.0,65.0,29.97,WSW,242,0.0,3.0,97,0.00,,,0.01,0,weatherlink.com 1.10,2013-05-12 10:19:00,
2013-05-12 06:34:00,65.9,65.0,29.98,SW,234,2.0,3.0,98,0.00,,,0.01,0,weatherlink.com 1.10,2013-05-12 10:34:00,
2013-05-12 06:49:00,66.1,66.0,29.98,WSW,240,3.0,3.0,98,0.00,,,0.01,11,weatherlink.com 1.10,2013-05-12 10:49:00,
2013-05-12 07:04:00,66.3,66.0,29.98,WSW,242,2.0,4.0,97,0.00,,,0.01,21,weatherlink.com 1.10,2013-05-12 11:04:00,
2013-05-12 07:19:00,66.8,66.0,29.99,WSW,248,3.0,7.0,98,0.00,,,0.01,60,weatherlink.com 1.10,2013-05-12 11:19:00,
2013-05-12 07:35:00,67.2,67.0,29.99,West,263,2.0,4.0,98,0.00,,,0.01,100,weatherlink.com 1.10,2013-05-12 11:35:00,
2013-05-12 07:50:00,67.8,67.0,29.99,WNW,296,0.0,5.0,98,0.00,,,0.01,102,weatherlink.com 1.10,2013-05-12 11:50:00,
2013-05-12 08:05:00,68.6,68.0,29.99,WNW,288,2.0,5.0,98,0.00,,,0.01,206,weatherlink.com 1.10,2013-05-12 12:05:00,
2013-05-12 08:20:00,68.9,68.0,30.00,West,279,4.0,9.0,97,0.00,,,0.01,250,weatherlink.com 1.10,2013-05-12 12:20:00,
2013-05-12 08:35:00,69.7,69.0,30.00,WSW,257,1.0,7.0,96,0.00,,,0.01,304,weatherlink.com 1.10,2013-05-12 12:35:00,
2013-05-12 08:50:00,70.5,69.0,30.00,WNW,297,5.0,8.0,94,0.00,,,0.01,360,weatherlink.com 1.10,2013-05-12 12:50:00,
2013-05-12 09:05:00,71.8,69.0,30.01,West,275,4.0,9.0,91,0.00,,,0.01,457,weatherlink.com 1.10,2013-05-12 13:05:00,
2013-05-12 09:20:00,72.6,70.0,30.01,West,269,4.0,8.0,90,0.00,,,0.01,524,weatherlink.com 1.10,2013-05-12 13:20:00,
2013-05-12 09:35:00,73.2,70.0,30.01,WSW,244,2.0,11.0,89,0.00,,,0.01,513,weatherlink.com 1.10,2013-05-12 13:35:00,
2013-05-12 09:50:00,74.0,70.0,30.01,West,281,2.0,9.0,87,0.00,,,0.01,207,weatherlink.com 1.10,2013-05-12 13:50:00,
2013-05-12 10:05:00,74.4,69.0,30.01,WNW,299,6.0,11.0,84,0.00,,,0.01,281,weatherlink.com 1.10,2013-05-12 14:05:00,
2013-05-12 10:21:00,75.0,69.0,30.00,NNW,332,7.0,10.0,82,0.00,,,0.01,278,weatherlink.com 1.10,2013-05-12 14:21:00,
2013-05-12 10:36:00,76.0,69.0,30.00,West,265,6.0,12.0,80,0.00,,,0.01,330,weatherlink.com 1.10,2013-05-12 14:36:00,
2013-05-12 10:51:00,76.5,70.0,30.01,NW,307,5.0,8.0,80,0.00,,,0.01,281,weatherlink.com 1.10,2013-05-12 14:51:00,
2013-05-12 11:06:00,76.4,69.0,30.00,WNW,289,4.0,9.0,79,0.00,,,0.01,315,weatherlink.com 1.10,2013-05-12 15:06:00,
2013-05-12 11:21:00,77.3,69.0,30.00,WNW,294,4.0,8.0,76,0.00,,,0.01,425,weatherlink.com 1.10,2013-05-12 15:21:00,
2013-05-12 11:36:00,78.0,69.0,29.99,South,178,2.0,11.0,74,0.00,,,0.01,983,weatherlink.com 1.10,2013-05-12 15:36:00,
2013-05-12 11:51:00,78.5,70.0,29.99,WSW,238,2.0,10.0,74,0.00,,,0.01,1065,weatherlink.com 1.10,2013-05-12 15:51:00,
2013-05-12 12:06:00,78.7,69.0,29.99,WSW,254,2.0,14.0,71,0.00,,,0.01,919,weatherlink.com 1.10,2013-05-12 16:06:00,
2013-05-12 12:21:00,79.7,68.0,29.99,West,260,2.0,12.0,68,0.00,,,0.01,991,weatherlink.com 1.10,2013-05-12 16:21:00,
2013-05-12 12:36:00,80.1,69.0,29.99,NNW,348,2.0,12.0,69,0.00,,,0.01,984,weatherlink.com 1.10,2013-05-12 16:36:00,
2013-05-12 12:51:00,81.1,69.0,29.98,West,269,2.0,10.0,67,0.00,,,0.01,1005,weatherlink.com 1.10,2013-05-12 16:51:00,
2013-05-12 13:07:00,81.8,69.0,29.98,West,279,2.0,9.0,65,0.00,,,0.01,1044,weatherlink.com 1.10,2013-05-12 17:07:00,
2013-05-12 13:22:00,82.0,69.0,29.98,West,261,7.0,13.0,64,0.00,,,0.01,1074,weatherlink.com 1.10,2013-05-12 17:22:00,
2013-05-12 13:37:00,81.7,68.0,29.98,WNW,282,6.0,12.0,63,0.00,,,0.01,229,weatherlink.com 1.10,2013-05-12 17:37:00,
2013-05-12 13:52:00,81.5,68.0,29.97,WSW,254,7.0,13.0,63,0.00,,,0.01,1078,weatherlink.com 1.10,2013-05-12 17:52:00,
2013-05-12 14:07:00,82.3,67.0,29.97,WNW,284,5.0,9.0,61,0.00,,,0.01,279,weatherlink.com 1.10,2013-05-12 18:07:00,
2013-05-12 14:22:00,82.7,68.0,29.96,NW,314,6.0,13.0,61,0.00,,,0.01,455,weatherlink.com 1.10,2013-05-12 18:22:00,
2013-05-12 14:37:00,83.2,67.0,29.96,WSW,250,6.0,10.0,58,0.00,,,0.01,490,weatherlink.com 1.10,2013-05-12 18:37:00,
2013-05-12 14:52:00,82.9,68.0,29.96,WNW,302,6.0,13.0,60,0.00,,,0.01,997,weatherlink.com 1.10,2013-05-12 18:52:00,
2013-05-12 15:07:00,83.2,68.0,29.96,West,265,1.0,13.0,60,0.00,,,0.01,1023,weatherlink.com 1.10,2013-05-12 19:07:00,
2013-05-12 15:22:00,82.6,68.0,29.96,NNW,338,3.0,12.0,62,0.00,,,0.01,958,weatherlink.com 1.10,2013-05-12 19:22:00,
2013-05-12 15:37:00,83.5,67.0,29.95,WSW,256,4.0,14.0,58,0.00,,,0.01,278,weatherlink.com 1.10,2013-05-12 19:37:00,
2013-05-12 15:52:00,84.5,68.0,29.95,WNW,290,5.0,13.0,57,0.00,,,0.01,877,weatherlink.com 1.10,2013-05-12 19:52:00,
2013-05-12 16:07:00,84.9,68.0,29.94,WSW,244,7.0,11.0,57,0.00,,,0.01,817,weatherlink.com 1.10,2013-05-12 20:07:00,
2013-05-12 16:22:00,84.9,67.0,29.94,West,268,6.0,14.0,55,0.00,,,0.01,874,weatherlink.com 1.10,2013-05-12 20:22:00,
2013-05-12 16:38:00,83.4,67.0,29.94,SW,236,2.0,10.0,59,0.00,,,0.01,276,weatherlink.com 1.10,2013-05-12 20:38:00,
2013-05-12 16:54:00,83.3,67.0,29.93,WSW,254,7.0,12.0,59,0.00,,,0.01,134,weatherlink.com 1.10,2013-05-12 20:54:00,
2013-05-12 17:08:00,83.6,67.0,29.93,WSW,256,9.0,11.0,57,0.00,,,0.01,633,weatherlink.com 1.10,2013-05-12 21:08:00,
2013-05-12 17:24:00,84.3,67.0,29.93,NW,308,4.0,13.0,56,0.00,,,0.01,204,weatherlink.com 1.10,2013-05-12 21:24:00,
2013-05-12 17:38:00,83.1,67.0,29.93,WNW,284,4.0,9.0,59,0.00,,,0.01,199,weatherlink.com 1.10,2013-05-12 21:38:00,
2013-05-12 17:54:00,82.5,67.0,29.93,North,5,1.0,7.0,60,0.00,,,0.01,237,weatherlink.com 1.10,2013-05-12 21:54:00,
2013-05-12 18:08:00,83.2,68.0,29.93,NW,313,3.0,7.0,60,0.00,,,0.01,260,weatherlink.com 1.10,2013-05-12 22:08:00,
2013-05-12 18:24:00,82.9,68.0,29.93,WNW,302,2.0,7.0,60,0.00,,,0.01,271,weatherlink.com 1.10,2013-05-12 22:24:00,
2013-05-12 18:38:00,82.1,66.0,29.94,WNW,285,10.0,11.0,59,0.00,,,0.01,127,weatherlink.com 1.10,2013-05-12 22:38:00,
2013-05-12 18:54:00,82.3,66.0,29.94,West,279,3.0,12.0,59,0.00,,,0.01,223,weatherlink.com 1.10,2013-05-12 22:54:00,
2013-05-12 19:08:00,81.8,66.0,29.94,WNW,300,2.0,8.0,59,0.00,,,0.01,65,weatherlink.com 1.10,2013-05-12 23:08:00,
2013-05-12 19:24:00,81.0,66.0,29.95,NW,324,3.0,8.0,60,0.00,,,0.01,77,weatherlink.com 1.10,2013-05-12 23:24:00,
2013-05-12 19:38:00,80.6,65.0,29.95,NNW,329,3.0,10.0,60,0.00,,,0.01,25,weatherlink.com 1.10,2013-05-12 23:38:00,
2013-05-12 19:54:00,79.9,65.0,29.96,NW,304,2.0,5.0,61,0.00,,,0.01,12,weatherlink.com 1.10,2013-05-12 23:54:00,
2013-05-12 20:08:00,79.2,65.0,29.96,NW,304,0.0,3.0,62,0.00,,,0.01,5,weatherlink.com 1.10,2013-05-13 00:08:00,
2013-05-12 20:24:00,78.6,65.0,29.97,NW,310,0.0,1.0,64,0.00,,,0.01,0,weatherlink.com 1.10,2013-05-13 00:24:00,
2013-05-12 20:38:00,77.8,66.0,29.97,NNW,327,3.0,5.0,66,0.00,,,0.01,0,weatherlink.com 1.10,2013-05-13 00:38:00,
2013-05-12 20:54:00,77.2,65.0,29.97,WNW,297,0.0,2.0,66,0.00,,,0.01,0,weatherlink.com 1.10,2013-05-13 00:54:00,
2013-05-12 21:09:00,76.6,65.0,29.98,WNW,297,0.0,1.0,68,0.00,,,0.01,0,weatherlink.com 1.10,2013-05-13 01:09:00,
2013-05-12 21:24:00,75.7,66.0,29.99,WSW,251,0.0,2.0,71,0.00,,,0.01,0,weatherlink.com 1.10,2013-05-13 01:24:00,
2013-05-12 21:39:00,74.7,66.0,30.00,SW,229,0.0,3.0,73,0.00,,,0.01,0,weatherlink.com 1.10,2013-05-13 01:39:00,
2013-05-12 21:54:00,74.2,65.0,30.00,WSW,237,1.0,4.0,74,0.00,,,0.01,0,weatherlink.com 1.10,2013-05-13 01:54:00,
2013-05-12 22:09:00,73.8,65.0,30.00,WSW,241,2.0,2.0,75,0.00,,,0.01,0,weatherlink.com 1.10,2013-05-13 02:09:00,
2013-05-12 22:24:00,73.2,66.0,30.01,WSW,252,1.0,3.0,77,0.00,,,0.01,0,weatherlink.com 1.10,2013-05-13 02:24:00,
2013-05-12 22:39:00,72.6,65.0,30.02,West,263,0.0,4.0,78,0.00,,,0.01,0,weatherlink.com 1.10,2013-05-13 02:39:00,
2013-05-12 22:54:00,72.3,65.0,30.03,West,268,0.0,3.0,79,0.00,,,0.01,0,weatherlink.com 1.10,2013-05-13 02:54:00,
2013-05-12 23:09:00,72.1,66.0,30.03,West,269,0.0,2.0,80,0.00,,,0.01,0,weatherlink.com 1.10,2013-05-13 03:09:00,
2013-05-12 23:24:00,71.7,65.0,30.03,WNW,294,0.0,3.0,80,0.00,,,0.01,0,weatherlink.com 1.10,2013-05-13 03:24:00,
2013-05-12 23:39:00,71.4,65.0,30.02,West,263,1.0,3.0,80,0.00,,,0.01,0,weatherlink.com 1.10,2013-05-13 03:39:00,
2013-05-12 23:54:00,70.8,65.0,30.04,WSW,254,0.0,4.0,81,0.00,,,0.01,0,weatherlink.com 1.10,2013-05-13 03:54:00,